Time,TemperatureF,DewpointF,PressureIn,WindDirection,WindDirectionDegrees,WindSpeedMPH,WindSpeedGustMPH,Humidity,HourlyPrecipIn,Conditions,Clouds,dailyrainin,SolarRadiationWatts/m^2,SoftwareType,DateUTC
2013-02-27 00:21:00,36.0,36.0,-100.00,NNE,21,1.0,5.0,100,0.00,,,0.00,0.000000,,2013-02-27 08:21:00,
2013-02-27 00:31:00,36.0,36.0,-100.00,NNE,21,1.0,5.0,100,0.00,,,0.00,0.000000,,2013-02-27 08:31:00,
2013-02-27 00:41:00,36.0,36.0,-100.00,NNE,21,1.0,5.0,100,0.00,,,0.00,0.000000,,2013-02-27 08:41:00,
2013-02-27 00:52:00,36.0,36.0,-100.00,NNE,21,1.0,5.0,100,0.00,,,0.00,0.000000,,2013-02-27 08:52:00,
2013-02-27 01:21:00,37.0,37.0,-100.00,NNW,344,3.0,8.0,100,0.00,,,0.00,0.000000,,2013-02-27 09:21:00,
2013-02-27 01:32:00,37.0,37.0,-100.00,NNW,344,3.0,8.0,100,0.00,,,0.00,0.000000,,2013-02-27 09:32:00,
2013-02-27 01:41:00,37.0,37.0,-100.00,NNW,344,3.0,8.0,100,0.00,,,0.00,0.000000,,2013-02-27 09:41:00,
2013-02-27 01:51:00,37.0,37.0,-100.00,NNW,344,3.0,8.0,100,0.00,,,0.00,0.000000,,2013-02-27 09:51:00,
2013-02-27 02:21:00,36.0,36.0,-100.00,NNW,343,2.0,8.0,100,0.00,,,0.00,0.000000,,2013-02-27 10:21:00,
2013-02-27 02:32:00,36.0,36.0,-100.00,NNW,343,2.0,8.0,100,0.00,,,0.00,0.000000,,2013-02-27 10:32:00,
2013-02-27 02:42:00,36.0,36.0,-100.00,NNW,343,2.0,8.0,100,0.00,,,0.00,0.000000,,2013-02-27 10:42:00,
2013-02-27 02:52:00,36.0,36.0,-100.00,NNW,343,2.0,8.0,100,0.00,,,0.00,0.000000,,2013-02-27 10:52:00,
2013-02-27 03:22:00,34.0,34.0,-100.00,NNE,21,0.0,8.0,100,0.00,,,-99.99,0.000000,,2013-02-27 11:22:00,
2013-02-27 03:32:00,34.0,34.0,-100.00,NNE,21,0.0,8.0,100,0.00,,,-99.99,0.000000,,2013-02-27 11:32:00,
2013-02-27 03:41:00,34.0,34.0,-100.00,NNE,21,0.0,8.0,100,0.00,,,-99.99,0.000000,,2013-02-27 11:41:00,
2013-02-27 03:52:00,34.0,34.0,-100.00,NNE,21,0.0,8.0,100,0.00,,,-99.99,0.000000,,2013-02-27 11:52:00,
2013-02-27 04:22:00,33.0,33.0,-100.00,NNW,346,0.0,7.0,100,0.00,,,0.00,0.000000,,2013-02-27 12:22:00,
2013-02-27 04:32:00,33.0,33.0,-100.00,NNW,346,0.0,7.0,100,0.00,,,0.00,0.000000,,2013-02-27 12:32:00,
2013-02-27 04:42:00,33.0,33.0,-100.00,NNW,346,0.0,7.0,100,0.00,,,0.00,0.000000,,2013-02-27 12:42:00,
2013-02-27 04:52:00,33.0,33.0,-100.00,NNW,346,0.0,7.0,100,0.00,,,0.00,0.000000,,2013-02-27 12:52:00,
2013-02-27 05:22:00,34.0,34.0,-100.00,NNW,338,2.0,6.0,99,0.00,,,0.00,0.000000,,2013-02-27 13:22:00,
2013-02-27 05:32:00,34.0,34.0,-100.00,NNW,338,2.0,6.0,99,0.00,,,0.00,0.000000,,2013-02-27 13:32:00,
2013-02-27 05:42:00,34.0,34.0,-100.00,NNW,338,2.0,6.0,99,0.00,,,0.00,0.000000,,2013-02-27 13:42:00,
2013-02-27 05:52:00,34.0,34.0,-100.00,NNW,338,2.0,6.0,99,0.00,,,0.00,0.000000,,2013-02-27 13:52:00,
2013-02-27 06:21:00,34.0,34.0,-100.00,North,350,1.0,5.0,100,0.00,,,0.00,0.000000,,2013-02-27 14:21:00,
2013-02-27 06:31:00,34.0,34.0,-100.00,North,350,1.0,5.0,100,0.00,,,0.00,0.000000,,2013-02-27 14:31:00,
2013-02-27 06:42:00,34.0,34.0,-100.00,North,350,1.0,5.0,100,0.00,,,0.00,0.000000,,2013-02-27 14:42:00,
2013-02-27 06:52:00,34.0,34.0,-100.00,North,350,1.0,5.0,100,0.00,,,0.00,0.000000,,2013-02-27 14:52:00,
2013-02-27 07:22:00,33.0,31.0,-100.00,NNW,340,3.0,8.0,94,0.00,,,0.00,4.000000,,2013-02-27 15:22:00,
2013-02-27 07:32:00,33.0,31.0,-100.00,NNW,340,3.0,8.0,94,0.00,,,0.00,4.000000,,2013-02-27 15:32:00,
2013-02-27 07:42:00,33.0,31.0,-100.00,NNW,340,3.0,8.0,94,0.00,,,0.00,4.000000,,2013-02-27 15:42:00,
2013-02-27 07:51:00,33.0,31.0,-100.00,NNW,340,3.0,8.0,94,0.00,,,0.00,4.000000,,2013-02-27 15:51:00,
2013-02-27 08:22:00,40.0,34.0,-100.00,NNW,342,1.0,8.0,79,0.00,,,0.00,178.000000,,2013-02-27 16:22:00,
2013-02-27 08:32:00,40.0,34.0,-100.00,NNW,342,1.0,8.0,79,0.00,,,0.00,178.000000,,2013-02-27 16:32:00,
2013-02-27 08:42:00,40.0,34.0,-100.00,NNW,342,1.0,8.0,79,0.00,,,0.00,178.000000,,2013-02-27 16:42:00,
2013-02-27 08:52:00,40.0,34.0,-100.00,NNW,342,1.0,8.0,79,0.00,,,0.00,178.000000,,2013-02-27 16:52:00,
2013-02-27 09:21:00,54.0,41.0,-100.00,NW,324,0.0,6.0,61,0.00,,,0.00,458.000000,,2013-02-27 17:21:00,
2013-02-27 10:22:00,60.0,40.0,-100.00,SW,224,0.0,4.0,48,0.00,,,-99.99,750.000000,,2013-02-27 18:22:00,
2013-02-27 10:32:00,60.0,40.0,-100.00,SW,224,0.0,4.0,48,0.00,,,-99.99,750.000000,,2013-02-27 18:32:00,
2013-02-27 10:42:00,60.0,40.0,-100.00,SW,224,0.0,4.0,48,0.00,,,-99.99,750.000000,,2013-02-27 18:42:00,
2013-02-27 10:51:00,60.0,40.0,-100.00,SW,224,0.0,4.0,48,0.00,,,-99.99,750.000000,,2013-02-27 18:51:00,
2013-02-27 11:21:00,60.0,37.0,-100.00,South,180,4.0,8.0,43,0.00,,,-99.99,898.000000,,2013-02-27 19:21:00,
2013-02-27 11:32:00,60.0,37.0,-100.00,South,180,4.0,8.0,43,0.00,,,-99.99,898.000000,,2013-02-27 19:32:00,
2013-02-27 11:42:00,60.0,37.0,-100.00,South,180,4.0,8.0,43,0.00,,,-99.99,898.000000,,2013-02-27 19:42:00,
2013-02-27 11:51:00,60.0,37.0,-100.00,South,180,4.0,8.0,43,0.00,,,-99.99,898.000000,,2013-02-27 19:51:00,
2013-02-27 12:21:00,64.0,33.0,-100.00,SSW,193,3.0,8.0,31,0.00,,,0.00,1044.000000,,2013-02-27 20:21:00,
2013-02-27 12:32:00,64.0,33.0,-100.00,SSW,193,3.0,8.0,31,0.00,,,0.00,1044.000000,,2013-02-27 20:32:00,
2013-02-27 12:42:00,64.0,33.0,-100.00,SSW,193,3.0,8.0,31,0.00,,,0.00,1044.000000,,2013-02-27 20:42:00,
2013-02-27 12:52:00,64.0,33.0,-100.00,SSW,193,3.0,8.0,31,0.00,,,0.00,1044.000000,,2013-02-27 20:52:00,
2013-02-27 13:21:00,63.0,34.0,-100.00,West,261,5.0,12.0,34,0.00,,,0.00,1043.000000,,2013-02-27 21:21:00,
2013-02-27 13:31:00,63.0,34.0,-100.00,West,261,5.0,12.0,34,0.00,,,0.00,1043.000000,,2013-02-27 21:31:00,
2013-02-27 13:42:00,63.0,34.0,-100.00,West,261,5.0,12.0,34,0.00,,,0.00,1043.000000,,2013-02-27 21:42:00,
2013-02-27 13:51:00,63.0,34.0,-100.00,West,261,5.0,12.0,34,0.00,,,0.00,1043.000000,,2013-02-27 21:51:00,
2013-02-27 14:21:00,65.0,39.0,-100.00,WSW,242,3.0,9.0,38,0.00,,,0.00,1010.000000,,2013-02-27 22:21:00,
2013-02-27 14:31:00,65.0,39.0,-100.00,WSW,242,3.0,9.0,38,0.00,,,0.00,1010.000000,,2013-02-27 22:31:00,
2013-02-27 14:41:00,65.0,39.0,-100.00,WSW,242,3.0,9.0,38,0.00,,,0.00,1010.000000,,2013-02-27 22:41:00,
2013-02-27 14:51:00,65.0,39.0,-100.00,WSW,242,3.0,9.0,38,0.00,,,0.00,1010.000000,,2013-02-27 22:51:00,
2013-02-27 15:21:00,66.0,42.0,-100.00,WSW,242,2.0,11.0,42,0.00,,,0.00,853.000000,,2013-02-27 23:21:00,
2013-02-27 15:31:00,66.0,42.0,-100.00,WSW,242,2.0,11.0,42,0.00,,,0.00,853.000000,,2013-02-27 23:31:00,
2013-02-27 15:42:00,66.0,42.0,-100.00,WSW,242,2.0,11.0,42,0.00,,,0.00,853.000000,,2013-02-27 23:42:00,
2013-02-27 15:52:00,66.0,42.0,-100.00,WSW,242,2.0,11.0,42,0.00,,,0.00,853.000000,,2013-02-27 23:52:00,
2013-02-27 16:21:00,64.0,40.0,-100.00,SW,228,1.0,8.0,42,0.00,,,0.00,622.000000,,2013-02-28 00:21:00,
2013-02-27 16:32:00,64.0,40.0,-100.00,SW,228,1.0,8.0,42,0.00,,,0.00,622.000000,,2013-02-28 00:32:00,
2013-02-27 16:42:00,64.0,40.0,-100.00,SW,228,1.0,8.0,42,0.00,,,0.00,622.000000,,2013-02-28 00:42:00,
2013-02-27 16:51:00,64.0,40.0,-100.00,SW,228,1.0,8.0,42,0.00,,,0.00,622.000000,,2013-02-28 00:51:00,
2013-02-27 17:21:00,60.0,38.0,-100.00,SSW,198,0.0,8.0,44,0.00,,,0.00,344.000000,,2013-02-28 01:21:00,
2013-02-27 17:31:00,60.0,38.0,-100.00,SSW,198,0.0,8.0,44,0.00,,,0.00,344.000000,,2013-02-28 01:31:00,
2013-02-27 17:41:00,60.0,38.0,-100.00,SSW,198,0.0,8.0,44,0.00,,,0.00,344.000000,,2013-02-28 01:41:00,
2013-02-27 17:51:00,60.0,38.0,-100.00,SSW,198,0.0,8.0,44,0.00,,,0.00,344.000000,,2013-02-28 01:51:00,
2013-02-27 18:22:00,52.0,37.0,-100.00,West,263,0.0,4.0,56,0.00,,,0.00,70.000000,,2013-02-28 02:22:00,
2013-02-27 18:31:00,52.0,37.0,-100.00,West,263,0.0,4.0,56,0.00,,,0.00,70.000000,,2013-02-28 02:31:00,
2013-02-27 18:41:00,52.0,37.0,-100.00,West,263,0.0,4.0,56,0.00,,,0.00,70.000000,,2013-02-28 02:41:00,
2013-02-27 18:51:00,52.0,37.0,-100.00,West,263,0.0,4.0,56,0.00,,,0.00,70.000000,,2013-02-28 02:51:00,
2013-02-27 19:21:00,44.0,36.0,-100.00,NW,325,0.0,0.0,72,0.00,,,0.00,0.000000,,2013-02-28 03:21:00,
2013-02-27 19:31:00,44.0,36.0,-100.00,NW,325,0.0,0.0,72,0.00,,,0.00,0.000000,,2013-02-28 03:31:00,
2013-02-27 19:41:00,44.0,36.0,-100.00,NW,325,0.0,0.0,72,0.00,,,0.00,0.000000,,2013-02-28 03:41:00,
2013-02-27 19:51:00,44.0,36.0,-100.00,NW,325,0.0,0.0,72,0.00,,,0.00,0.000000,,2013-02-28 03:51:00,
2013-02-27 20:21:00,41.0,37.0,-100.00,NNW,339,0.0,4.0,84,0.00,,,0.00,0.000000,,2013-02-28 04:21:00,
2013-02-27 20:31:00,41.0,37.0,-100.00,NNW,339,0.0,4.0,84,0.00,,,0.00,0.000000,,2013-02-28 04:31:00,
2013-02-27 20:41:00,41.0,37.0,-100.00,NNW,339,0.0,4.0,84,0.00,,,0.00,0.000000,,2013-02-28 04:41:00,
2013-02-27 20:51:00,41.0,37.0,-100.00,NNW,339,0.0,4.0,84,0.00,,,0.00,0.000000,,2013-02-28 04:51:00,
2013-02-27 21:22:00,40.0,37.0,-100.00,NNW,333,0.0,5.0,88,0.00,,,0.00,0.000000,,2013-02-28 05:22:00,
2013-02-27 21:31:00,40.0,37.0,-100.00,NNW,333,0.0,5.0,88,0.00,,,0.00,0.000000,,2013-02-28 05:31:00,
2013-02-27 21:42:00,40.0,37.0,-100.00,NNW,333,0.0,5.0,88,0.00,,,0.00,0.000000,,2013-02-28 05:42:00,
2013-02-27 21:52:00,40.0,37.0,-100.00,NNW,333,0.0,5.0,88,0.00,,,0.00,0.000000,,2013-02-28 05:52:00,
2013-02-27 22:22:00,39.0,37.0,-100.00,NNW,337,0.0,6.0,91,0.00,,,0.00,0.000000,,2013-02-28 06:22:00,
2013-02-27 22:32:00,39.0,37.0,-100.00,NNW,337,0.0,6.0,91,0.00,,,0.00,0.000000,,2013-02-28 06:32:00,
2013-02-27 22:41:00,39.0,37.0,-100.00,NNW,337,0.0,6.0,91,0.00,,,0.00,0.000000,,2013-02-28 06:41:00,
2013-02-27 22:51:00,39.0,37.0,-100.00,NNW,337,0.0,6.0,91,0.00,,,0.00,0.000000,,2013-02-28 06:51:00,
2013-02-27 23:21:00,39.0,37.0,-100.00,NNW,348,4.0,6.0,92,0.00,,,0.00,0.000000,,2013-02-28 07:21:00,
2013-02-27 23:31:00,39.0,37.0,-100.00,NNW,348,4.0,6.0,92,0.00,,,0.00,0.000000,,2013-02-28 07:31:00,
2013-02-27 23:41:00,39.0,37.0,-100.00,NNW,348,4.0,6.0,92,0.00,,,0.00,0.000000,,2013-02-28 07:41:00,
2013-02-27 23:51:00,39.0,37.0,-100.00,NNW,348,4.0,6.0,92,0.00,,,0.00,0.000000,,2013-02-28 07:51:00,